Home > Weather > Oceanside > Past weeks

Flag for USA Past Weather in Oceanside, California, USA — Yesterday and Last 2 Weeks

Now
65 °F

Fog.


Feels Like: 65 °F
Forecast: 64 / 83 °F
Wind: 3 mph from North

Location: Oceanside - Camp Pendleton

Current Time: Jun 28, 2016 at 6:22:43 AM

Latest Report: Jun 28, 2016 at 5:55 AM


Visibility: 3 mi

Pressure: 29.92 "Hg

Humidity: 97%

Dew Point: 64 °F

Location of OceansideLocation

Past Weather in Oceanside — Graph

°F

Oceanside Temperature Yesterday

Maximum temperature yesterday: 84 °F (at 10:55 AM)
Minimum temperature yesterday: 63 °F (at 1:55 AM)
Average temperature yesterday: 72 °F

High & Low Weather Summary for the Past Weeks

 TemperatureHumidityPressure
High100 °F (Jun 19, 2:55 PM)93% (Jun 23, 11:55 PM)30.12 "Hg (Jun 23, 11:55 PM)
Low51 °F (Jun 18, 5:55 AM)14% (Jun 20, 12:55 PM)29.77 "Hg (Jun 19, 5:55 PM)
Average69 °F69%29.93 "Hg
* Reported Jun 13 4:55 AM — Jun 28 4:55 AM, Oceanside, Weather by CustomWeather, © 2016

Note: Actual official high and low records may vary slightly from our data, if they occured in-between our weather recording intervals... More about our weather records

Advertising

Oceanside Weather History for the Previous 24 Hours

Scroll right to see more
 ConditionsComfort  
Time TempWeatherWind HumidityBarometerVisibility
4:55 AM
Tue, Jun 28
66 °FFog.No wind93%29.93 "Hg3 mi
3:55 AM66 °FFog.No wind93%29.92 "Hg3 mi
2:55 AM66 °FFog.No wind93%29.91 "Hg4 mi
1:55 AM65 °FFog.No wind91%29.92 "Hg4 mi
12:55 AM66 °FFog.3 mph90%29.93 "Hg4 mi
11:55 PM
Mon, Jun 27
66 °FPassing clouds.No wind90%29.93 "Hg7 mi
10:55 PM66 °FPassing clouds.3 mph90%29.93 "Hg7 mi
9:55 PM68 °FPassing clouds.No wind87%29.92 "Hg7 mi
8:55 PM69 °FPassing clouds.5 mph84%29.91 "Hg7 mi
7:55 PM71 °FPassing clouds.5 mph78%29.90 "Hg7 mi
6:55 PM73 °FPassing clouds.8 mph76%29.89 "Hg7 mi
5:55 PM75 °FPassing clouds.9 mph71%29.88 "Hg7 mi
4:55 PM78 °FWarm.13 mph62%29.88 "HgN/A
3:55 PM82 °FPassing clouds.9 mph53%29.89 "Hg7 mi
2:55 PM83 °FPassing clouds.8 mph53%29.90 "Hg7 mi
1:55 PM83 °FPassing clouds.12 mph51%29.91 "Hg7 mi
12:55 PM83 °FPassing clouds.10 mph51%29.91 "Hg7 mi
11:55 AM83 °FScattered clouds.10 mph55%29.92 "Hg7 mi
10:55 AM84 °FScattered clouds.6 mph53%29.91 "Hg7 mi
9:55 AM77 °FScattered clouds.No wind64%29.92 "Hg7 mi
8:55 AM74 °FPassing clouds.No wind71%29.93 "Hg7 mi
7:55 AM70 °FPassing clouds.No wind81%29.92 "Hg7 mi
6:55 AM66 °FFog.3 mph93%29.91 "Hg2 mi
Weather by CustomWeather, © 2016

See weather overviewHow to use our weather pages